Weather History for PAFE - April, 2013

Change the Weather History Date:

Thursday, April 25, 2013

  Actual Average Record
Temperature  
Mean Temperature 45 °F -  
Max Temperature 48 °F 48 °F 64 °F (2003)
Min Temperature 41 °F 33 °F 28 °F (2008)
Degree Days  
Heating Degree Days 20    
Moisture  
Dew Point 38 °F    
Average Humidity 78    
Maximum Humidity 87    
Minimum Humidity 66    
Precipitation  
Precipitation 0.40 in - - ()
Sea Level Pressure  
Sea Level Pressure 29.66 in    
Wind  
Wind Speed 12 mph (SE)    
Max Wind Speed 21 mph    
Max Gust Speed 28 mph    
Visibility 10 miles    
Events      
Averages and records for this station are not official NWS values.
T = Trace of Precipitation, MM = Missing Value Source: NWS Daily Summary

Daily Weather History Graph

Daily Weather History Graph

Search for Another Location

Airport or City:

Trip Planner

Search our weather history database for the weather conditions in past years. The results will help you decide how hot, cold, wet, or windy it might be!

Date:

Astronomy

Apr. 25, 2013 Rise Set
Actual Time 5:21 AM AKDT 8:27 PM AKDT
Civil Twilight 4:36 AM AKDT 9:11 PM AKDT
Nautical Twilight 3:37 AM AKDT 10:12 PM AKDT
Astronomical Twilight 2:09 AM AKDT 11:44 PM AKDT
Moon 8:57 PM AKDT (4/25) 5:09 AM AKDT (4/25)
Length of Visible Light 16h 35m
Length of Day
15h 06m
Full, 100% of the Moon is Illuminated
Apr 25
Full
May 2
Last Quarter
May 9
New
May 17
First Quarter
May 24
Full

Hourly Weather History & Observations

Time (AKDT) Temp. Windchill Dew Point Humidity Pressure Visibility Wind Dir Wind Speed Gust Speed Precip Events Conditions
12:16 AM 44.6 °F 39.2 °F 37.4 °F 76% 29.86 in 10.0 mi SE 10.4 mph - N/A   Overcast
12:36 AM 44.6 °F 38.8 °F 37.4 °F 76% 29.86 in 10.0 mi SE 11.5 mph - N/A   Overcast
12:56 AM 44.6 °F 38.8 °F 37.4 °F 76% 29.85 in 10.0 mi SE 11.5 mph - N/A   Overcast
1:16 AM 44.6 °F 38.8 °F 37.4 °F 76% 29.84 in 10.0 mi SSE 11.5 mph - N/A   Overcast
1:36 AM 44.6 °F 39.7 °F 37.4 °F 76% 29.83 in 10.0 mi SE 9.2 mph - N/A   Overcast
1:56 AM 44.6 °F 39.2 °F 37.4 °F 76% 29.82 in 10.0 mi SE 10.4 mph - N/A   Overcast
2:16 AM 42.8 °F 37.5 °F 37.4 °F 81% 29.81 in 10.0 mi SSE 9.2 mph - N/A   Overcast
2:36 AM 42.8 °F 37.5 °F 37.4 °F 81% 29.81 in 10.0 mi SSE 9.2 mph - N/A   Overcast
2:56 AM 42.8 °F 37.5 °F 37.4 °F 81% 29.80 in 10.0 mi SSE 9.2 mph - N/A   Overcast
3:16 AM 42.8 °F 38.0 °F 37.4 °F 81% 29.79 in 10.0 mi SSE 8.1 mph - N/A   Overcast
3:36 AM 42.8 °F 37.5 °F 37.4 °F 81% 29.78 in 10.0 mi SSE 9.2 mph - N/A   Overcast
3:56 AM 42.8 °F 37.0 °F 37.4 °F 81% 29.78 in 10.0 mi SSE 10.4 mph - N/A   Overcast
4:16 AM 42.8 °F 37.5 °F 37.4 °F 81% 29.77 in 10.0 mi SE 9.2 mph - N/A   Overcast
4:36 AM 42.8 °F 36.6 °F 37.4 °F 81% 29.76 in 10.0 mi SE 11.5 mph - N/A   Overcast
4:56 AM 42.8 °F 37.5 °F 37.4 °F 81% 29.75 in 10.0 mi SE 9.2 mph - N/A   Overcast
5:16 AM 42.8 °F 36.6 °F 37.4 °F 81% 29.74 in 10.0 mi SE 11.5 mph - N/A   Overcast
5:36 AM 44.6 °F 38.4 °F 37.4 °F 76% 29.72 in 10.0 mi SE 12.7 mph - N/A   Overcast
5:56 AM 44.6 °F 38.1 °F 37.4 °F 76% 29.71 in 10.0 mi SE 13.8 mph - N/A   Overcast
6:16 AM 44.6 °F 38.1 °F 39.2 °F 81% 29.70 in 10.0 mi SE 13.8 mph 19.6 mph N/A   Overcast
6:36 AM 44.6 °F 38.1 °F 39.2 °F 81% 29.69 in 10.0 mi SE 13.8 mph - N/A   Overcast
6:56 AM 44.6 °F 38.4 °F 39.2 °F 81% 29.69 in 10.0 mi SSE 12.7 mph 19.6 mph N/A   Overcast
7:16 AM 44.6 °F 37.4 °F 37.4 °F 76% 29.68 in 10.0 mi SSE 16.1 mph 21.9 mph N/A   Overcast
7:36 AM 44.6 °F 37.2 °F 37.4 °F 76% 29.68 in 10.0 mi SSE 17.3 mph 23.0 mph N/A   Overcast
7:56 AM 44.6 °F 37.4 °F 39.2 °F 81% 29.67 in 10.0 mi SSE 16.1 mph - N/A   Overcast
8:16 AM 44.6 °F 37.2 °F 39.2 °F 81% 29.66 in 10.0 mi SSE 17.3 mph 24.2 mph N/A   Overcast
8:36 AM 44.6 °F 36.9 °F 39.2 °F 81% 29.66 in 10.0 mi SSE 18.4 mph 23.0 mph N/A   Mostly Cloudy
8:56 AM 46.4 °F 39.2 °F 39.2 °F 76% 29.65 in 10.0 mi SSE 18.4 mph 21.9 mph N/A   Overcast
9:16 AM 46.4 °F 40.1 °F 39.2 °F 76% 29.65 in 10.0 mi SSE 15.0 mph - N/A   Overcast
9:36 AM 46.4 °F 40.4 °F 39.2 °F 76% 29.65 in 10.0 mi SE 13.8 mph 25.3 mph N/A   Overcast
9:56 AM 46.4 °F 39.5 °F 39.2 °F 76% 29.65 in 10.0 mi SE 17.3 mph 23.0 mph N/A   Overcast
10:16 AM 46.4 °F 40.1 °F 39.2 °F 76% 29.65 in 10.0 mi SE 15.0 mph 20.7 mph N/A   Overcast
10:36 AM 46.4 °F 40.1 °F 39.2 °F 76% 29.64 in 10.0 mi SSE 15.0 mph 19.6 mph N/A   Overcast
10:56 AM 46.4 °F 39.5 °F 39.2 °F 76% 29.64 in 10.0 mi SE 17.3 mph 23.0 mph N/A   Mostly Cloudy
11:16 AM 48.2 °F - 39.2 °F 71% 29.63 in 10.0 mi SE 20.7 mph 26.5 mph N/A   Scattered Clouds
11:36 AM 48.2 °F - 39.2 °F 71% 29.64 in 10.0 mi SE 19.6 mph 25.3 mph N/A   Partly Cloudy
11:56 AM 48.2 °F - 39.2 °F 71% 29.63 in 10.0 mi SSE 19.6 mph 27.6 mph N/A   Clear
12:16 PM 48.2 °F - 39.2 °F 71% 29.63 in 10.0 mi SSE 18.4 mph 23.0 mph N/A   Partly Cloudy
12:36 PM 48.2 °F - 39.2 °F 71% 29.62 in 10.0 mi SSE 17.3 mph 23.0 mph N/A   Clear
12:56 PM 48.2 °F - 39.2 °F 71% 29.63 in 10.0 mi SSE 12.7 mph 20.7 mph N/A   Partly Cloudy
1:16 PM 48.2 °F - 37.4 °F 66% 29.63 in 10.0 mi South 12.7 mph 19.6 mph N/A   Mostly Cloudy
1:36 PM 48.2 °F - 37.4 °F 66% 29.63 in 10.0 mi SE 12.7 mph - N/A   Scattered Clouds
1:56 PM 46.4 °F 41.1 °F 39.2 °F 76% 29.63 in 10.0 mi ESE 11.5 mph - N/A   Clear
2:16 PM 46.4 °F 41.1 °F 37.4 °F 71% 29.63 in 10.0 mi ESE 11.5 mph 18.4 mph N/A   Scattered Clouds
2:36 PM 46.4 °F 40.4 °F 37.4 °F 71% 29.63 in 10.0 mi SE 13.8 mph 21.9 mph N/A   Mostly Cloudy
2:56 PM 46.4 °F 41.1 °F 39.2 °F 76% 29.63 in 10.0 mi ESE 11.5 mph 18.4 mph N/A   Mostly Cloudy
3:16 PM 46.4 °F 41.1 °F 37.4 °F 71% 29.62 in 10.0 mi SE 11.5 mph - N/A   Overcast
3:36 PM 46.4 °F 40.7 °F 37.4 °F 71% 29.62 in 10.0 mi ESE 12.7 mph 18.4 mph N/A   Overcast
3:56 PM 44.6 °F 38.1 °F 37.4 °F 76% 29.61 in 10.0 mi SE 13.8 mph - N/A   Overcast
4:16 PM 46.4 °F 41.5 °F 37.4 °F 71% 29.61 in 10.0 mi ESE 10.4 mph 20.7 mph N/A   Overcast
4:36 PM 44.6 °F 38.8 °F 37.4 °F 76% 29.60 in 10.0 mi SE 11.5 mph - N/A   Overcast
4:56 PM 44.6 °F 38.4 °F 37.4 °F 76% 29.60 in 10.0 mi SSE 12.7 mph 17.3 mph N/A   Overcast
5:16 PM 44.6 °F 38.1 °F 37.4 °F 76% 29.60 in 10.0 mi SSE 13.8 mph 18.4 mph N/A   Overcast
5:36 PM 44.6 °F 37.4 °F 39.2 °F 81% 29.60 in 10.0 mi SE 16.1 mph 21.9 mph N/A   Mostly Cloudy
5:56 PM 44.6 °F 38.4 °F 39.2 °F 81% 29.61 in 10.0 mi SE 12.7 mph - N/A   Overcast
6:16 PM 44.6 °F 38.8 °F 39.2 °F 81% 29.61 in 10.0 mi SSE 11.5 mph 18.4 mph N/A   Overcast
6:36 PM 44.6 °F 38.8 °F 39.2 °F 81% 29.60 in 10.0 mi SE 11.5 mph 16.1 mph 0.01 in   Overcast
6:56 PM 44.6 °F 38.4 °F 39.2 °F 81% 29.60 in 10.0 mi SE 12.7 mph - 0.02 in   Overcast
7:16 PM 44.6 °F 38.1 °F 39.2 °F 81% 29.59 in 10.0 mi SE 13.8 mph - 0.01 in   Overcast
7:36 PM 44.6 °F 39.7 °F 39.2 °F 81% 29.58 in 10.0 mi SE 9.2 mph - 0.03 in   Overcast
7:56 PM 44.6 °F 38.8 °F 39.2 °F 81% 29.57 in 10.0 mi SE 11.5 mph - 0.04 in   Overcast
8:16 PM 44.6 °F 38.8 °F 39.2 °F 81% 29.57 in 10.0 mi SE 11.5 mph - 0.01 in   Overcast
8:36 PM 44.6 °F 38.4 °F 39.2 °F 81% 29.57 in 10.0 mi SE 12.7 mph 16.1 mph 0.02 in   Overcast
8:56 PM 42.8 °F 37.5 °F 39.2 °F 87% 29.57 in 10.0 mi SE 9.2 mph - 0.05 in   Overcast
9:16 PM 42.8 °F 36.2 °F 39.2 °F 87% 29.57 in 10.0 mi SE 12.7 mph 16.1 mph 0.04 in   Overcast
9:36 PM 42.8 °F 37.5 °F 39.2 °F 87% 29.56 in 10.0 mi SE 9.2 mph - 0.07 in   Overcast
9:56 PM 42.8 °F 36.6 °F 39.2 °F 87% 29.56 in 10.0 mi SE 11.5 mph 18.4 mph 0.09 in   Overcast
10:16 PM 42.8 °F 37.0 °F 39.2 °F 87% 29.56 in 9.0 mi SE 10.4 mph 18.4 mph 0.03 in   Overcast
10:36 PM 42.8 °F 35.8 °F 37.4 °F 81% 29.55 in 9.0 mi SE 13.8 mph 19.6 mph 0.07 in   Overcast
11:16 PM 42.8 °F 36.2 °F 37.4 °F 81% 29.54 in 10.0 mi SE 12.7 mph 18.4 mph 0.05 in   Overcast
11:36 PM 42.8 °F 35.8 °F 37.4 °F 81% 29.54 in 10.0 mi SE 13.8 mph 23.0 mph 0.10 in   Overcast
11:56 PM 41.0 °F 34.3 °F 37.4 °F 87% 29.54 in 9.0 mi ESE 11.5 mph 20.7 mph 0.13 in   Overcast